Regional Weather Roundup
Issued by NWS Wakefield, VA

Home | Current Version | Previous Version | Graphics & Text | Print | Product List | Glossary On
Versions: 1 2 3 4 5 6 7 8 9 10 11 12 13 14 15 16 17 18 19 20 21 22 23 24 25 26 27 28 29 30 31 32 33 34 35 36 37 38 39 40 41 42 43 44 45 46 47 48 49 50
520
ASUS41 KAKQ 232215
RWRAKQ

REGIONAL WEATHER ROUNDUP
NATIONAL WEATHER SERVICE WAKEFIELD VA
600 PM EDT SAT JUL 23 2016

Note: "fair" indicates few or no clouds below 12,000 feet with no
significant weather and/or obstructions to visibility. * = Denotes
station may not report precipitation (e.g., rain,snow,etc.),
thunder or fog.

VAZ042-051-052>054-056-232300-
NORTHERN VIRGINIA

CITY           SKY/WX    TMP DP  RH WIND       PRES   REMARKS
WASH NATIONAL  PTSUNNY   96  70  42 SW12      29.86F HX 102
DULLES         FAIR      97  68  38 SW12G20   29.87F HX 102
FORT BELVOIR   FAIR      96  68  39 SW8       29.87S HX 101
QUANTICO       FAIR      96  70  42 W10       29.88F HX 102
FREDERICKSBRG*   N/A     96  72  46 SW7       29.88S HX 104
STAFFORD*      FAIR      95  67  39 SW6       29.93S HX  98
WARRENTON      FAIR      95  63  34 SW6       29.89F HX  96
CULPEPER*      FAIR      94  74  51 S7        29.89F HX 104
MANASSAS*      SUNNY     95  66  38 SW8       29.88  HX  98
LEESBURG*      FAIR      97  72  44 W7        29.89S HX 105
WINCHESTER     FAIR      95  66  38 W9        29.91S HX  98
FRONT ROYAL*   FAIR      95  70  43 SW5       29.90F HX 101
LURAY*         FAIR      93  66  40 SW7       29.93F HX  96
$$

VAZ048-049-060>072-079>083-232300-
CENTRAL AND SOUTH CENTRAL VIRGINIA

CITY           SKY/WX    TMP DP  RH WIND       PRES   REMARKS
RICHMOND       FAIR      92  73  53 SW10      29.90F HX 100
CHESTERFIELD*  FAIR      93  68  43 SW8       29.92F HX  97
PETERSBURG*    FAIR      95  74  49 SW3       29.92F HX 105
HANOVER        FAIR      94  70  45 SW8       29.91F HX 100
TAPPAHANNOCK*  FAIR      95  71  45 S9        29.90S HX 101
QUINTON*       FAIR      93  75  56 SW5       29.89F HX 105
CHARLOTTSVILLE FAIR      96  69  41 S10       29.91F HX 102
GORDONSVILLE*  FAIR      95  72  46 SW7       29.90S HX 103
ORANGE*          N/A     95  68  41 S8        29.93S HX  99
LOUISA*        FAIR      97  75  49 SW5       29.90F HX 109
BUMPASS*       FAIR      93  75  55 SW3       29.90F HX 104
FARMVILLE*     NOT AVBL
CREWE*         FAIR      94  74  51 S6        29.93S HX 104
FORT PICKETT*  FAIR      93  71  48 SW9       29.93S HX 100
CHASE CITY*    FAIR      94  70  45 CALM      29.95S HX 100
CLARKSVILLE*   FAIR      91  75  59 SW8       29.94S HX 102
SOUTH HILL*    FAIR      92  74  54 SW8       29.99F HX 102
LAWRENCEVILLE* FAIR      93  73  52 SW6       29.93S HX 102
EMPORIA*       FAIR      91  72  52 S6        29.94S HX  98
$$

VAZ088>098-232300-
SOUTHEAST VIRGINIA

CITY           SKY/WX    TMP DP  RH WIND       PRES   REMARKS
NORFOLK        FAIR      96  69  41 W12G17    29.89F HX 102
VIRGINIA BEACH FAIR      98  73  44 SW12      29.88F HX 108
NORFOLK NAVAL  FAIR      94  71  47 SW9       29.91F HX 101
WEST POINT*    FAIR      93  72  50 SW8       29.90F HX 100
SALUDA*        FAIR      92  77  60 SW3G20    29.88F HX 106
NEWPORT NEWS   FAIR      93  74  53 SW12      29.90F HX 103
LANGLEY AFB    FAIR      93  76  56 S12       29.89F HX 105
FORT EUSTIS    FAIR      95  76  54 SW5       29.88F HX 107
WILLIAMSBURG*  FAIR      97  75  49 SW8       29.91S HX 109
HR EXEC AP*    FAIR      93  75  55 W9        29.92F HX 104
FRANKLIN*      FAIR      92  74  55 SW7       29.92S HX 102
US460-WAKEFLD  FAIR      93  73  52 SW7       29.91F HX 102
$$

VAZ020-022-025-037-045-232300-
WEST CENTRAL AND SOUTHWEST VIRGINIA

CITY           SKY/WX    TMP DP  RH WIND       PRES   REMARKS
STAUNTON*      FAIR      92  68  45 SW9       29.96F HX  96
WAYNESBORO*    FAIR      92  63  37 SW6       29.98F
HOT SPRINGS VA NOT AVBL
LYNCHBURG      FAIR      92  69  47 SW8       29.98S HX  97
DANVILLE       FAIR      93  70  46 SW3       29.96S HX  99
SOUTH BOSTON*  FAIR      93  72  49 SW3       29.95S HX 101
MARTINSVILLE   FAIR      94  65  38 CALM      30.00S HX  96
ROANOKE        FAIR      94  66  39 SE6       30.00S HX  97
BLACKSBURG     FAIR      88  67  49 NW5       30.08S
DUBLIN*        FAIR      91  60  34 CALM      30.07S
MARION*        FAIR      86  68  54 CALM      30.11R
HILLSVILLE*    FAIR      87  67  51 S5        30.10R
RICHLANDS*     CLOUDY    80  68  67 CALM      30.12R
WISE*          FAIR      72  59  64 NW5       30.14R
ABINGDON*      FAIR      89  64  43 N5        30.06R
$$

MDZ021>025-VAZ099-100-232300-
SOUTHERN MARYLAND AND THE DELMARVA PENINSULA

CITY           SKY/WX    TMP DP  RH WIND       PRES   REMARKS
PATUXENT RIVER MOSUNNY   97  69  40 W16       29.87S HX 103
BAY BRIDGE APT NOT AVBL
LEONARDTOWN    SUNNY     95  68  41 W8G18     29.90S HX  99
DOVER          SUNNY     95  77  56 SW9       29.83S HX 109
GEORGETOWN     MOSUNNY   94  73  50 SW9       29.87S HX 103
EASTON         PTSUNNY   93  79  62 SW6       29.90S HX 110
CAMBRIDGE      SUNNY     90  72  55 S6        29.88R HX  96
SALISBURY      SUNNY     91  72  53 SW10      29.88S HX  98
OCEAN CITY     MOSUNNY   92  72  51 W9        29.87S HX  99
WALLOPS ISLAND FAIR      92  74  55 W9        29.88F HX 101
ACCOMACK*      FAIR      91  72  52 CALM      29.89S HX  98
$$

NCZ012>017-030>032-232300-
NORTH CENTRAL AND EASTERN NORTH CAROLINA

CITY           SKY/WX    TMP DP  RH WIND       PRES   REMARKS
ROANOKE RAPIDS FAIR      90  77  66 S5        29.93F HX 102
RALEIGH        MOSUNNY   89  75  63 SW5       29.95F HX  99
ELIZABETH CITY SUNNY     92  74  55 SW10      29.92F HX 101
AHOSKIE*       SUNNY     88  79  74 CALM      29.93F HX 103
EDENTON*       SUNNY     93  73  51 SW8       29.93F HX 102
CURRITUCK*     MOSUNNY   92  74  54 S5        29.92F HX 101
KILL DEVIL HLS SUNNY     94  75  55 SW5       29.92F HX 105
MANTEO           N/A     90  79  69 SW14      29.94R HX 105
CAPE HATTERAS  SUNNY     86  76  71 SW9G18    29.97S HX  96
TARBORO*       FAIR      93  74  54 SW3       29.95S HX 103
GOLDSBORO      CLOUDY    93  74  55 VRB5      29.93F HX 103
WASHINGTON     MOSUNNY   91  74  57 SW6       29.94S HX 100
GREENVILLE     MOSUNNY   93  75  55 SW9       29.96S HX 104
NEW BERN       SUNNY     90  72  55 SW9       29.97S HX  97
WILMINGTON     MOSUNNY   86  73  65 S7        29.97R
$$

VAZ048-232300-
ELSEWHERE

CITY           SKY/WX    TMP DP  RH WIND       PRES   REMARKS
HARRISBURG PA  MOSUNNY   97  65  34 NW12      29.82S HX  99
BALTIMORE      PTSUNNY   93  69  45 W10       29.85S HX  98
ANNAPOLIS      MOSUNNY   90  77  65 S7        29.85S HX 103
ANDREWS AFB    FAIR      94  71  47 SW13      29.86F HX 101
PHILADELPHIA   CLOUDY    82  70  66 E13       29.86R THUNDER
GREENSBORO     PTSUNNY   92  70  48 VRB3      29.97F HX  97
ROCKY MOUNT    SUNNY     93  75  55 SW5       29.95S HX 104
$$

VAZ100-232300-
MARINE

STATION/POSITION TIME  TEMP    WIND        PRES    WAVE   SWELL
                       AIR SEA DIR/SP/G            HT/PER HT/PER
                 (UTC) (F)     (DEG/KT/KT) (MB)    (FT/S) (FT/S)
BRANDYWINE LGT   2100   82     160/  7/  8   N/A
CAPE MAY NJ      2100   84 77  140/  5/  6 1010.8F
LEWES DE         2100   90 76  300/ 11/ 15 1010.9F
OCEAN-CITY-INLET 2100   80 71  200/ 10/ 14 1011.8F
WACHAPREAGUE VA  2100   90     210/  8/ 13 1012.3F
THOMAS POINT MD  2200   87 83  180/ 10/ 11 1012.3S
GOOSES REEF MD   2100   91 84  230/  8/ 10 1012.6F   1/ 2
COVE POINT MD    2100   88     170/  8/ 10 1012.2F
SOLOMONS ISLAND  2100   93 85  250/  9/ 11   N/A
BISHOPS HEAD MD  2100   89     190/ 13/ 14 1012.2F
PINEY POINT MD   2100          120/  4/  4   N/A
POTOMAC MD       2100   88 85  160/  6/  8 1010.6F   1/ 2
CAMBRIDGE MD     2100   93 86  210/  9/ 13 1010.6F
LEWISETTA VA     2100   94 86  250/ 11/ 15 1011.2F
RAPPAHANNOCK LGT 2100          180/ 11/ 12 1013.1F
STINGRAY PT      2100   91 86  170/ 10/ 14 1012.9F   1/ 2
YORK RVR RNG VA  2100   92     260/ 11/ 12 1012.2F
YORKTOWN VA      2100   92 85  240/  9/ 11 1012.4F
JAMESTOWN VA     2100   93 88  230/  8/ 10   N/A
DOMINION TERM VA 2100   92     250/  9/ 11 1013.1F
KIPTOPEKE VA     2100      80  190/  6/  7   N/A
CHES BAY BRIDGE  2100   87 79   10/  4/  5 1012.9F
CAPE HENRY VA    2100   88     340/  8/  9   N/A
WILLOUBY STN VA  2100   89     260/ 11/ 11   N/A
CAPE HENRY BUOY  2112      80                N/A     2/ 8
1ST LANDING BUOY 2100   86 85   10/  4/  6 1012.6F
CAPE CHARLES BUO 2126      76                N/A     2/ 9
OFFSHORE WE BUOY 2121      82                N/A     2/ 8
64NM E OF VA BCH 2150   82 81  210/ 14/ 16 1013.2F   3/ 9   2/ 9
DUCK PIER NC     2100   90 65  240/ 11/ 13 1013.0F
44100 DUCK FRF   2105      83                N/A     2/ 8
44056 DUCK FRF   2111      75                N/A     2/ 8
OREGON INLET NC  2100   85 84  190/ 17/ 20 1014.0F
HATTERAS NC      2100   86 83  200/  8/ 15 1014.7F
DIAMOND SHLS NC  2150   85 86  220/ 14/ 14 1014.8F   2/ 8   2/ 8
CAPE LOOKOUT NC  2200   85     200/ 11/ 12 1014.9F
$$




USA.gov is the U.S. government's official web portal to all federal, state and local government web resources and services.